Puyallup, WA

4:12 AM PDT on September 28, 2016 (GMT -0700)
Pierce County - Thun Field

Weather History for KPLU - April, 2014

Change the Weather History Date:

Wednesday, April 30, 2014

  Actual Average (KTCM) Record (KTCM)
Temperature  
Mean Temperature 60 °F -  
Max Temperature 80 °F 58 °F 82 °F (1989)
Min Temperature 41 °F 39 °F 30 °F (1964)
Degree Days  
Heating Degree Days 4    
Growing Degree Days 10 (Base 50)    
Moisture  
Dew Point 44 °F    
Average Humidity 62    
Maximum Humidity 100    
Minimum Humidity 21    
Precipitation  
Precipitation 0.00 in - - ()
Sea Level Pressure  
Sea Level Pressure 30.29 in    
Wind  
Wind Speed 1 mph (NNW)    
Max Wind Speed 8 mph    
Max Gust Speed 16 mph    
Visibility 10 miles    
Events      
Averages and records for this station are not official NWS values.
T = Trace of Precipitation, MM = Missing Value Source: NWS Daily Summary

Daily Weather History Graph

Daily Weather History Graph

Search for Another Location

Airport or City:

Trip Planner

Search our weather history database for the weather conditions in past years. The results will help you decide how hot, cold, wet, or windy it might be!

Date:

Astronomy

Apr. 30, 2014 Rise Set
Actual Time 5:54 AM PDT 8:18 PM PDT
Civil Twilight 5:20 AM PDT 8:52 PM PDT
Nautical Twilight 4:38 AM PDT 9:35 PM PDT
Astronomical Twilight 3:50 AM PDT 10:24 PM PDT
Moon 6:57 AM PDT (4/30) 10:06 PM PDT (4/30)
Length of Visible Light 15h 31m
Length of Day
14h 24m
Waxing Crescent, 3% of the Moon is Illuminated
Apr 30
Waxing Crescent
May 6
First Quarter
May 14
Full
May 21
Last Quarter
May 28
New

Hourly Weather History & Observations

Time (PDT) Temp. Dew Point Humidity Pressure Visibility Wind Dir Wind Speed Gust Speed Precip Events Conditions
12:15 AM 48.2 °F 44.6 °F 87% 30.40 in 10.0 mi Calm Calm - N/A   Unknown
12:35 AM 48.2 °F 44.6 °F 87% 30.40 in 10.0 mi Calm Calm - N/A   Unknown
12:55 AM 48.2 °F 44.6 °F 87% 30.40 in 10.0 mi Calm Calm - N/A   Unknown
1:15 AM 46.4 °F 44.6 °F 93% 30.39 in 10.0 mi Calm Calm - N/A   Unknown
1:35 AM 46.4 °F 44.6 °F 93% 30.39 in 10.0 mi Calm Calm - N/A   Unknown
1:55 AM 46.4 °F 44.6 °F 93% 30.39 in 10.0 mi Calm Calm - N/A   Unknown
2:15 AM 44.6 °F 44.6 °F 100% 30.39 in 10.0 mi Calm Calm - N/A   Unknown
2:35 AM 44.6 °F 44.6 °F 100% 30.38 in 10.0 mi Calm Calm - N/A   Unknown
2:55 AM 44.6 °F 44.6 °F 100% 30.38 in 10.0 mi Calm Calm - N/A   Unknown
3:15 AM 44.6 °F 42.8 °F 93% 30.38 in 10.0 mi Calm Calm - N/A   Unknown
3:35 AM 44.6 °F 42.8 °F 93% 30.38 in 10.0 mi Calm Calm - N/A   Unknown
3:55 AM 44.6 °F 44.6 °F 100% 30.37 in 10.0 mi Calm Calm - N/A   Unknown
4:15 AM 42.8 °F 42.8 °F 100% 30.37 in 10.0 mi Calm Calm - N/A   Unknown
4:35 AM 42.8 °F 42.8 °F 100% 30.37 in 10.0 mi Calm Calm - N/A   Unknown
4:55 AM 41.0 °F 41.0 °F 100% 30.37 in 10.0 mi Calm Calm - N/A   Unknown
5:15 AM 41.0 °F 41.0 °F 100% 30.37 in 10.0 mi Calm Calm - N/A   Unknown
5:35 AM 41.0 °F 41.0 °F 100% 30.37 in 10.0 mi Calm Calm - N/A   Unknown
5:55 AM 41.0 °F 41.0 °F 100% 30.37 in 10.0 mi Calm Calm - N/A   Unknown
6:15 AM 41.0 °F 41.0 °F 100% 30.37 in 10.0 mi Calm Calm - N/A   Unknown
6:35 AM 42.8 °F 42.8 °F 100% 30.36 in 10.0 mi Calm Calm - N/A   Unknown
6:55 AM 42.8 °F 42.8 °F 100% 30.36 in 10.0 mi Calm Calm - N/A   Unknown
7:15 AM 44.6 °F 44.6 °F 100% 30.36 in 10.0 mi Calm Calm - N/A   Unknown
7:35 AM 48.2 °F 44.6 °F 87% 30.36 in 10.0 mi Calm Calm - N/A   Unknown
7:55 AM 51.8 °F 48.2 °F 88% 30.36 in 10.0 mi Calm Calm - N/A   Unknown
8:15 AM 55.4 °F 46.4 °F 72% 30.36 in 10.0 mi Calm Calm - N/A   Unknown
8:35 AM 59.0 °F 46.4 °F 63% 30.37 in 10.0 mi Calm Calm - N/A   Unknown
8:55 AM 59.0 °F 46.4 °F 63% 30.37 in 10.0 mi Calm Calm - N/A   Unknown
9:20 AM 62.6 °F 46.4 °F 55% 30.36 in 10.0 mi Calm Calm - N/A   Unknown
9:35 AM 64.4 °F 48.2 °F 56% 30.36 in 10.0 mi Calm Calm - N/A   Unknown
9:55 AM 66.2 °F 48.2 °F 52% 30.36 in 10.0 mi Calm Calm - N/A   Unknown
10:15 AM 68.0 °F 46.4 °F 46% 30.35 in 10.0 mi Calm Calm - N/A   Unknown
10:35 AM 68.0 °F 48.2 °F 49% 30.35 in 10.0 mi NW 3.5 mph - N/A   Unknown
10:55 AM 69.8 °F 48.2 °F 46% 30.34 in 10.0 mi Calm Calm - N/A   Unknown
11:15 AM 71.6 °F 46.4 °F 41% 30.34 in 10.0 mi NNW 4.6 mph - N/A   Unknown
11:35 AM 73.4 °F 48.2 °F 41% 30.33 in 10.0 mi NNW 3.5 mph - N/A   Unknown
11:55 AM 73.4 °F 48.2 °F 41% 30.33 in 10.0 mi NNW 3.5 mph - N/A   Unknown
12:15 PM 75.2 °F 46.4 °F 36% 30.32 in 10.0 mi NNW 4.6 mph - N/A   Unknown
12:35 PM 75.2 °F 46.4 °F 36% 30.31 in 10.0 mi NNW 3.5 mph - N/A   Unknown
12:55 PM 77.0 °F 44.6 °F 32% 30.30 in 10.0 mi NNW 4.6 mph - N/A   Unknown
1:15 PM 77.0 °F 46.4 °F 34% 30.30 in 10.0 mi NE 3.5 mph - N/A   Unknown
1:35 PM 77.0 °F 46.4 °F 34% 30.29 in 10.0 mi NNW 3.5 mph - N/A   Unknown
1:55 PM 77.0 °F 44.6 °F 32% 30.28 in 10.0 mi North 4.6 mph - N/A   Unknown
2:15 PM 78.8 °F 41.0 °F 26% 30.28 in 10.0 mi North 5.8 mph - N/A   Unknown
2:35 PM 80.6 °F 41.0 °F 24% 30.27 in 10.0 mi North 8.1 mph - N/A   Unknown
2:55 PM 80.6 °F 41.0 °F 24% 30.27 in 10.0 mi NNW 6.9 mph - N/A   Unknown
3:15 PM 80.6 °F 41.0 °F 24% 30.26 in 10.0 mi NNW 8.1 mph - N/A   Unknown
3:35 PM 80.6 °F 41.0 °F 24% 30.25 in 10.0 mi North 3.5 mph 16.1 mph N/A   Unknown
3:55 PM 80.6 °F 41.0 °F 24% 30.24 in 10.0 mi North 5.8 mph - N/A   Unknown
4:15 PM 80.6 °F 41.0 °F 24% 30.23 in 10.0 mi NNW 6.9 mph - N/A   Unknown
4:35 PM 80.6 °F 39.2 °F 23% 30.22 in 10.0 mi North 5.8 mph - N/A   Unknown
4:55 PM 80.6 °F 39.2 °F 23% 30.21 in 10.0 mi North 6.9 mph - N/A   Unknown
5:15 PM 80.6 °F 37.4 °F 21% 30.21 in 10.0 mi NNW 8.1 mph - N/A   Unknown
5:35 PM 80.6 °F 37.4 °F 21% 30.20 in 10.0 mi North 3.5 mph - N/A   Unknown
6:15 PM 78.8 °F 37.4 °F 23% 30.18 in 10.0 mi NW 5.8 mph - N/A   Unknown
6:35 PM 77.0 °F 37.4 °F 24% 30.18 in 10.0 mi North 4.6 mph - N/A   Unknown
6:55 PM 77.0 °F 39.2 °F 26% 30.18 in 10.0 mi Calm Calm - N/A   Unknown
7:15 PM 75.2 °F 41.0 °F 29% 30.17 in 10.0 mi Calm Calm - N/A   Unknown
7:35 PM 73.4 °F 44.6 °F 36% 30.17 in 10.0 mi NNW 4.6 mph - N/A   Unknown
7:55 PM 71.6 °F 44.6 °F 38% 30.16 in 10.0 mi Calm Calm - N/A   Unknown
8:15 PM 68.0 °F 46.4 °F 46% 30.16 in 10.0 mi Calm Calm - N/A   Unknown
8:35 PM 64.4 °F 46.4 °F 52% 30.16 in 10.0 mi Calm Calm - N/A   Unknown
8:55 PM 64.4 °F 46.4 °F 52% 30.16 in 10.0 mi Calm Calm - N/A   Unknown
9:15 PM 62.6 °F 46.4 °F 55% 30.16 in 10.0 mi Calm Calm - N/A   Unknown
9:35 PM 59.0 °F 48.2 °F 67% 30.16 in 10.0 mi Calm Calm - N/A   Unknown
9:55 PM 59.0 °F 48.2 °F 67% 30.16 in 10.0 mi Calm Calm - N/A   Unknown
10:15 PM 55.4 °F 50.0 °F 82% 30.16 in 10.0 mi Calm Calm - N/A   Unknown
10:35 PM 53.6 °F 50.0 °F 88% 30.15 in 10.0 mi Calm Calm - N/A   Unknown
11:15 PM 53.6 °F 50.0 °F 88% 30.15 in 10.0 mi Calm Calm - N/A   Unknown
11:35 PM 53.6 °F 50.0 °F 88% 30.15 in 10.0 mi Calm Calm - N/A   Unknown
11:55 PM 51.8 °F 50.0 °F 94% 30.15 in 10.0 mi Calm Calm - N/A   Unknown